[Iaude] MPEC T192: 2023 TP7 [a=1.82,e=0.53,i=5.2,H=25.6]

mpec at marsden.cfa.harvard.edu mpec at marsden.cfa.harvard.edu
Thu Oct 12 10:18:22 EDT 2023


M.P.E.C. 2023-T192                             Issued 2023 October 12, 14:16 UT

     The Minor Planet Electronic Circulars contain information on unusual
         minor planets, routine data on comets and natural satellites,
         and occasional editorial announcements.  They are published
    on behalf of Division F of the International Astronomical Union by the
          Minor Planet Center, Smithsonian Astrophysical Observatory,
                          Cambridge, MA 02138, U.S.A.
			  
             Prepared using the Tamkin Foundation Computer Network

                              MPC at CFA.HARVARD.EDU
            URL https://www.minorplanetcenter.net/    ISSN 1523-6714

                                    2023 TP7                                    


Observations:
     K23T07P  C2023 10 08.40621023 20 43.819+01 05 30.63         20.55GVET192F51
     K23T07P  C2023 10 08.44126223 20 36.718+01 02 58.63         21.22GVET192F51
     K23T07P* C2023 10 11.37221623 10 28.475-03 38 09.88         21.06wXET192F51
     K23T07P  C2023 10 11.38465923 10 24.381-03 39 44.42         21.06wXET192F51
     K23T07P  C2023 10 11.40957423 10 16.199-03 42 54.18         20.74wXET192F51
     K23T07P  C2023 10 11.52263823 09 40.183-03 57 25.77         20.25GVET192F51
     K23T07P KB2023 10 11.80416923 08 32.66 -04 36 19.8          20.3 GVET192I93
     K23T07P KB2023 10 11.80861523 08 31.18 -04 36 57.8          20.2 GVET192I93
     K23T07P KB2023 10 11.81306823 08 29.73 -04 37 34.2          20.7 GVET192I93
     K23T07P 6C2023 10 11.89285123 08 02.764-04 48 35.33         20.5 GVET192Z84
     K23T07P 6C2023 10 11.90448823 07 58.624-04 50 14.83         20.1 GVET192Z84
     K23T07P KC2023 10 12.13227523 06 48.40 -05 23 36.5          20.8 VuET192H21
     K23T07P KC2023 10 12.13507523 06 47.36 -05 24 01.4          20.8 VuET192H21
     K23T07P KC2023 10 12.13787523 06 46.32 -05 24 26.7          21.0 VuET192H21
     K23T07P KC2023 10 12.14114323 06 45.10 -05 24 56.4          21.2 VuET192H21

Observer details:
F51 Pan-STARRS 1, Haleakala.  Observers J. Bulger, T. Lowe, P. Minguez, A.
    Schultz, I. Smith.  Measurers K. Chambers, T. de Boer, J. Fairlamb, H.
    Gao, M. Huber, C.-C. Lin, E. Magnier, Y. Ramanjooloo, R. Wainscoat, R.
    Weryk, J. Bulger, T. Lowe, P. Minguez, A. Schultz, I. Smith.  1.8-m
    Ritchey-Chretien + CCD.
H21 Astronomical Research Observatory, Westfield.  Observer R. Holmes.
    Measurers T. Linder, R. Holmes, L. Horn.  0.76-m f/3.0 astrograph + CCD.
I93 St Pardon de Conques.  Observer F. Losse.  0.40-m f/3.7 reflector + CMO.
Z84 Calar Alto-Schmidt.  Observers M. Micheli, R. Kresken.  Measurers R.
    Kresken, M. Micheli, F. Ocana, L. Conversi.  0.8-m f/3 Schmidt + CCD.

Orbital elements:
2023 TP7                                                 Earth MOID = 0.0109 AU
Epoch 2023 Sept. 13.0 TT = JDT 2460200.5                Bell                    
M 329.57373              (2000.0)            P               Q                  
n   0.40234777     Peri.  242.75680     +0.18246695     -0.98286203             
a   1.8171955      Node   196.79154     +0.93114465     +0.18130928             
e   0.5345859      Incl.    5.20952     +0.31571419     +0.03330441             
P   2.45           H   25.67          G   0.15           U   8                  
Residuals in seconds of arc
231008 F51  0.0   0.1+    231011 F51  0.0   0.1-    231011 Z84  0.0   0.1+
231008 F51  0.0   0.1+    231011 I93  0.1-  0.0     231012 H21  0.1-  0.1-
231011 F51  0.1+  0.1-    231011 I93  0.0   0.7-    231012 H21  0.1-  0.2+
231011 F51  0.1+  0.2-    231011 I93  0.5+  0.3+    231012 H21  0.1-  0.2+
231011 F51  0.0   0.1-    231011 Z84  0.1+  0.2+    231012 H21  0.1-  0.1-

Ephemeris:
2023 TP7                 a,e,i = 1.82, 0.53, 5                   q = 0.8457
Date    TT    R. A. (2000) Decl.     Delta      r    Elong.  Phase     V
2023 09 12    23 46 27.5 +09 47 16   0.2801  1.2784   164.1    12.5    24.2
...
2023 09 27    23 38 01.6 +07 52 26   0.1583  1.1585   169.3     9.3    22.6
...
2023 10 05    23 28 06.2 +04 15 38   0.1009  1.0966   161.8    16.5    21.8
...
2023 10 11    23 12 06.9 -02 51 49   0.06078 1.0520   150.7    27.7    20.9
2023 10 12    23 07 29.1 -05 02 05   0.05441 1.0448   147.9    30.5    20.8
2023 10 13    23 01 41.2 -07 45 42   0.04819 1.0376   144.5    34.0    20.6
...
2023 10 19    20 20 25.2 -53 51 52   0.02077 0.9962    89.1    89.7    20.4
...
2023 10 27    12 36 11.0 -33 13 41   0.05496 0.9462    28.7   149.7    27.6
...
2023 11 11    12 11 41.9 -20 30 35   0.1585  0.8755    40.4   132.9    27.4

M. P. C. Staff               (C) Copyright 2023 MPC           M.P.E.C. 2023-T192




More information about the Iaude mailing list